Regional Weather Roundup
Issued by NWS

Home | Current Version | Previous Version | Graphics & Text | Print | Product List | Glossary On
Versions: 1 2 3 4 5 6 7 8 9 10 11 12 13 14 15 16 17 18 19 20 21 22 23 24 25 26 27 28 29 30 31 32 33 34 35 36 37 38 39 40 41 42 43 44 45 46 47 48 49 50
000
ASUS43 KLMK 220010
RWRKY
KENTUCKY REGIONAL WEATHER ROUNDUP
NATIONAL WEATHER SERVICE LOUISVILLE KY
800 PM EDT THU MAY 21 2015

NOTE "FAIR" INDICATES FEW OR NO CLOUDS BELOW 12,000 FEET
WITH NO SIGNIFICANT WEATHER AND/OR OBSTRUCTIONS TO VISIBILITY.

KYZ001>023-026-027-061>063-070>075-220100-
WESTERN AND SOUTH CENTRAL KENTUCKY

CITY           SKY/WX    TMP DP  RH WIND       PRES   REMARKS
PADUCAH        PTSUNNY   58  42  55 N9        30.17S
HENDERSON      CLEAR     57  43  58 NW9       30.15R
OWENSBORO      PTCLDY    59  44  57 NW10      30.15F
HOPKINSVILLE   CLOUDY    55  46  69 N6        30.17R
BOWLING GREEN  CLOUDY    56  45  66 VRB5      30.16R
GLASGOW        CLOUDY    55  46  71 NW5       30.14R
$$

KYZ024-025-028>034-038-045-046-053-220100-
NORTH CENTRAL KENTUCKY

CITY           SKY/WX    TMP DP  RH WIND       PRES   REMARKS
LOUISVILLE/SDF PTCLDY    59  41  51 N16       30.12S
LOUISVILLE/LOU PTCLDY    59  41  51 N6        30.12S
FORT KNOX      MOCLDY    56  44  63 NW9       30.12R
$$

KYZ035>037-039>044-047>052-055>060-089>105-220100-
NORTHEAST KENTUCKY

CITY           SKY/WX    TMP DP  RH WIND       PRES   REMARKS
LEXINGTON      CLOUDY    54  42  64 NW7       30.11R
COVINGTON      PTCLDY    56  41  57 NW9       30.09R
FRANKFORT      CLOUDY    56  41  57 NW3       30.11R
$$

KYZ054-064>069-076>088-106>120-220100-
SOUTHEAST KENTUCKY

CITY           SKY/WX    TMP DP  RH WIND       PRES   REMARKS
JACKSON        CLOUDY    50  47  89 NW5       30.09R
LONDON         CLOUDY    53  45  74 NW6       30.11R
SOMERSET       CLOUDY    52  45  76 NW3       30.13S
MIDDLESBORO    DRIZZLE   53  49  87 N9        30.10R
MONTICELLO     CLOUDY    54  52  94 NW6       30.16R
$$



USA.gov is the U.S. government's official web portal to all federal, state and local government web resources and services.